Location: Newark
(35.0589°N, 135.9944°E)
Time: 08:37:26
(UTC+00:00)

OTV 5 (USA 277) - Visible Passes

Search period start: 24 September 2019 00:00
Search period end: 04 October 2019 00:00
Orbit: 295 x 339 km, 54.5° (Epoch: 08 September)

Date Brightness Start Highest point End Pass type
(mag) Time Alt. Az. Time Alt. Az. Time Alt. Az.
29 Sep ? 19:45:22 10° S 19:47:50 27° SE 19:50:17 10° ENE visible
30 Sep ? 19:59:50 13° SW 20:02:17 81° NW 20:05:07 10° NE visible
01 Oct ? 18:43:48 13° E 18:43:48 13° E 18:44:32 10° E visible
01 Oct ? 20:14:44 12° W 20:16:53 25° NW 20:19:19 10° NNE visible
02 Oct ? 18:58:32 24° ENE 18:58:32 24° ENE 18:59:53 10° NE visible
03 Oct ? 19:13:07 22° NNE 19:13:07 22° NNE 19:14:23 10° NNE visible
